Time,TemperatureF,DewpointF,PressureIn,WindDirection,WindDirectionDegrees,WindSpeedMPH,WindSpeedGustMPH,Humidity,HourlyPrecipIn,Conditions,Clouds,dailyrainin,SoftwareType,DateUTC
2013-02-16 00:00:00,44.3,31.3,29.97,NW,315,3.6,6.8,60,0.00,,,0.00,WUHU216HW,2013-02-16 05:00:00,
2013-02-16 00:05:00,43.6,31.0,29.98,NNW,338,4.0,6.8,61,0.00,,,0.00,WUHU216HW,2013-02-16 05:05:00,
2013-02-16 00:10:00,43.4,31.2,29.98,NW,315,4.4,6.8,62,0.00,,,0.00,WUHU216HW,2013-02-16 05:10:00,
2013-02-16 00:15:00,43.9,31.3,29.98,NNW,338,3.6,5.0,61,0.00,,,0.00,WUHU216HW,2013-02-16 05:15:00,
2013-02-16 00:20:00,44.1,31.1,29.98,NNW,338,2.2,4.4,60,0.00,,,0.00,WUHU216HW,2013-02-16 05:20:00,
2013-02-16 00:23:00,43.6,31.0,29.98,NW,315,2.6,5.0,61,0.00,,,0.00,WUHU216HW,2013-02-16 05:23:00,
2013-02-16 00:28:00,43.0,30.9,29.98,NNW,338,3.6,6.8,62,0.00,,,0.00,WUHU216HW,2013-02-16 05:28:00,
2013-02-16 00:33:00,43.2,31.1,29.98,NNW,338,5.4,6.8,62,0.00,,,0.00,WUHU216HW,2013-02-16 05:33:00,
2013-02-16 00:38:00,43.6,30.6,29.98,NNE,23,5.4,5.4,60,0.00,,,0.00,WUHU216HW,2013-02-16 05:38:00,
2013-02-16 00:43:00,43.4,30.8,29.98,North,0,2.2,5.4,61,0.00,,,0.00,WUHU216HW,2013-02-16 05:43:00,
2013-02-16 00:48:00,42.8,30.2,29.98,North,0,0.4,5.0,61,0.00,,,0.00,WUHU216HW,2013-02-16 05:48:00,
2013-02-16 00:53:00,42.8,30.2,29.98,NNW,338,0.8,2.6,61,0.00,,,0.00,WUHU216HW,2013-02-16 05:53:00,
2013-02-16 00:58:00,43.2,30.6,29.98,NW,315,0.4,2.2,61,0.00,,,0.00,WUHU216HW,2013-02-16 05:58:00,
2013-02-16 01:03:00,43.0,30.1,29.98,NNW,338,0.4,2.6,60,0.00,,,0.00,WUHU216HW,2013-02-16 06:03:00,
2013-02-16 01:08:00,42.5,30.0,29.98,North,0,1.8,4.0,61,0.00,,,0.00,WUHU216HW,2013-02-16 06:08:00,
2013-02-16 01:13:00,42.5,30.0,29.98,North,0,0.4,4.0,61,0.00,,,0.00,WUHU216HW,2013-02-16 06:13:00,
2013-02-16 01:18:00,42.7,30.2,29.98,North,0,0.8,3.2,61,0.00,,,0.00,WUHU216HW,2013-02-16 06:18:00,
2013-02-16 01:23:00,42.7,30.2,29.98,NNW,338,0.4,3.2,61,0.00,,,0.00,WUHU216HW,2013-02-16 06:23:00,
2013-02-16 01:28:00,42.1,29.6,29.98,NNW,338,0.8,1.4,61,0.00,,,0.00,WUHU216HW,2013-02-16 06:28:00,
2013-02-16 01:33:00,42.1,30.0,29.98,North,0,1.8,1.8,62,0.00,,,0.00,WUHU216HW,2013-02-16 06:33:00,
2013-02-16 01:38:00,42.1,29.6,29.97,NNE,23,0.4,1.8,61,0.00,,,0.00,WUHU216HW,2013-02-16 06:38:00,
2013-02-16 01:43:00,42.1,30.0,29.97,East,90,0.4,2.2,62,0.00,,,0.00,WUHU216HW,2013-02-16 06:43:00,
2013-02-16 01:48:00,41.8,29.7,29.98,NNW,338,2.6,2.6,62,0.00,,,0.00,WUHU216HW,2013-02-16 06:48:00,
2013-02-16 01:53:00,41.4,29.7,29.98,NNW,338,2.2,3.6,63,0.00,,,0.00,WUHU216HW,2013-02-16 06:53:00,
2013-02-16 01:58:00,41.8,29.7,29.98,NNW,338,3.2,3.6,62,0.00,,,0.00,WUHU216HW,2013-02-16 06:58:00,
2013-02-16 02:03:00,41.8,29.3,29.98,West,270,2.2,3.6,61,0.00,,,0.00,WUHU216HW,2013-02-16 07:03:00,
2013-02-16 02:08:00,41.2,29.2,29.98,NNW,338,0.8,3.6,62,0.00,,,0.00,WUHU216HW,2013-02-16 07:08:00,
2013-02-16 02:13:00,41.0,29.0,29.98,NNW,338,0.4,2.2,62,0.00,,,0.00,WUHU216HW,2013-02-16 07:13:00,
2013-02-16 02:18:00,41.4,29.3,29.98,North,0,0.8,2.2,62,0.00,,,0.00,WUHU216HW,2013-02-16 07:18:00,
2013-02-16 02:23:00,41.6,29.5,29.98,NNW,338,0.4,2.2,62,0.00,,,0.00,WUHU216HW,2013-02-16 07:23:00,
2013-02-16 02:28:00,41.0,29.0,29.98,NW,315,2.2,2.2,62,0.00,,,0.00,WUHU216HW,2013-02-16 07:28:00,
2013-02-16 02:33:00,40.9,28.8,29.98,NW,315,3.6,3.6,62,0.00,,,0.00,WUHU216HW,2013-02-16 07:33:00,
2013-02-16 02:38:00,41.2,29.2,29.98,North,0,1.4,3.6,62,0.00,,,0.00,WUHU216HW,2013-02-16 07:38:00,
2013-02-16 02:43:00,41.4,29.3,29.98,NW,315,3.6,3.6,62,0.00,,,0.00,WUHU216HW,2013-02-16 07:43:00,
2013-02-16 02:48:00,40.7,29.1,29.98,NNW,338,3.6,3.6,63,0.00,,,0.00,WUHU216HW,2013-02-16 07:48:00,
2013-02-16 02:53:00,40.5,28.9,29.97,North,0,0.0,3.6,63,0.00,,,0.00,WUHU216HW,2013-02-16 07:53:00,
2013-02-16 02:58:00,40.9,28.8,29.97,NNW,338,2.2,3.2,62,0.00,,,0.00,WUHU216HW,2013-02-16 07:58:00,
2013-02-16 03:03:00,41.0,29.0,29.97,North,0,1.8,2.2,62,0.00,,,0.00,WUHU216HW,2013-02-16 08:03:00,
2013-02-16 03:08:00,40.9,29.3,29.97,North,0,0.8,2.2,63,0.00,,,0.00,WUHU216HW,2013-02-16 08:08:00,
2013-02-16 03:13:00,40.5,28.9,29.97,North,0,0.0,1.8,63,0.00,,,0.00,WUHU216HW,2013-02-16 08:13:00,
2013-02-16 03:15:00,40.7,28.6,29.97,NNW,338,1.8,2.2,62,0.00,,,0.00,WUHU216HW,2013-02-16 08:15:00,
2013-02-16 03:31:00,40.5,28.4,29.97,North,0,0.8,4.0,62,0.00,,,0.00,WUHU216HW,2013-02-16 08:31:00,
2013-02-16 03:32:00,40.5,28.9,29.97,NW,315,2.2,2.2,63,0.00,,,0.00,WUHU216HW,2013-02-16 08:32:00,
2013-02-16 03:36:00,40.5,28.9,29.97,NW,315,2.2,3.6,63,0.00,,,0.00,WUHU216HW,2013-02-16 08:36:00,
2013-02-16 03:41:00,40.5,28.9,29.97,NW,315,2.2,2.2,63,0.00,,,0.00,WUHU216HW,2013-02-16 08:41:00,
2013-02-16 04:02:00,40.9,28.8,29.96,NNW,338,1.4,1.4,62,0.00,,,0.00,WUHU216HW,2013-02-16 09:02:00,
2013-02-16 04:07:00,40.9,28.8,29.96,North,0,0.8,1.8,62,0.00,,,0.00,WUHU216HW,2013-02-16 09:07:00,
2013-02-16 04:12:00,40.5,28.9,29.96,North,0,0.0,1.8,63,0.00,,,0.00,WUHU216HW,2013-02-16 09:12:00,
2013-02-16 04:17:00,40.1,28.5,29.96,NW,315,1.8,1.8,63,0.00,,,0.00,WUHU216HW,2013-02-16 09:17:00,
2013-02-16 04:22:00,40.7,29.1,29.96,NNW,338,1.4,3.2,63,0.00,,,0.00,WUHU216HW,2013-02-16 09:22:00,
2013-02-16 04:27:00,40.7,28.6,29.96,NNW,338,2.2,3.6,62,0.00,,,0.00,WUHU216HW,2013-02-16 09:27:00,
2013-02-16 04:32:00,40.0,28.4,29.96,NNW,338,3.2,3.6,63,0.00,,,0.00,WUHU216HW,2013-02-16 09:32:00,
2013-02-16 04:37:00,39.6,28.0,29.96,NW,315,3.2,3.6,63,0.00,,,0.00,WUHU216HW,2013-02-16 09:37:00,
2013-02-16 04:42:00,40.1,28.5,29.95,NNW,338,2.2,3.6,63,0.00,,,0.00,WUHU216HW,2013-02-16 09:42:00,
2013-02-16 04:47:00,40.5,28.4,29.95,NNW,338,2.6,3.6,62,0.00,,,0.00,WUHU216HW,2013-02-16 09:47:00,
2013-02-16 04:52:00,40.1,28.5,29.95,NNE,23,2.2,2.6,63,0.00,,,0.00,WUHU216HW,2013-02-16 09:52:00,
2013-02-16 04:57:00,39.8,28.2,29.94,North,0,0.8,2.2,63,0.00,,,0.00,WUHU216HW,2013-02-16 09:57:00,
2013-02-16 05:02:00,39.8,28.2,29.94,NNW,338,2.2,3.2,63,0.00,,,0.00,WUHU216HW,2013-02-16 10:02:00,
2013-02-16 05:07:00,40.3,28.3,29.94,North,0,1.4,3.2,62,0.00,,,0.00,WUHU216HW,2013-02-16 10:07:00,
2013-02-16 05:12:00,40.1,27.7,29.94,NNW,338,1.8,3.2,61,0.00,,,0.00,WUHU216HW,2013-02-16 10:12:00,
2013-02-16 05:17:00,39.6,27.5,29.94,NNW,338,3.2,3.2,62,0.00,,,0.00,WUHU216HW,2013-02-16 10:17:00,
2013-02-16 05:22:00,39.4,27.8,29.94,NNW,338,0.8,3.2,63,0.00,,,0.00,WUHU216HW,2013-02-16 10:22:00,
2013-02-16 05:27:00,40.0,27.9,29.94,North,0,1.4,3.2,62,0.00,,,0.00,WUHU216HW,2013-02-16 10:27:00,
2013-02-16 05:32:00,40.0,27.5,29.94,NNW,338,2.6,2.6,61,0.00,,,0.00,WUHU216HW,2013-02-16 10:32:00,
2013-02-16 05:37:00,39.6,27.2,29.94,North,0,2.2,2.6,61,0.00,,,0.00,WUHU216HW,2013-02-16 10:37:00,
2013-02-16 05:42:00,39.2,27.6,29.94,NNW,338,3.6,3.6,63,0.00,,,0.00,WUHU216HW,2013-02-16 10:42:00,
2013-02-16 05:47:00,39.6,27.5,29.95,NNW,338,2.2,4.4,62,0.00,,,0.00,WUHU216HW,2013-02-16 10:47:00,
2013-02-16 05:52:00,40.1,27.4,29.94,NW,315,6.8,6.8,60,0.00,,,0.00,WUHU216HW,2013-02-16 10:52:00,
2013-02-16 05:57:00,40.0,27.5,29.94,North,0,3.6,7.6,61,0.00,,,0.00,WUHU216HW,2013-02-16 10:57:00,
2013-02-16 06:02:00,39.6,27.2,29.94,North,0,3.2,8.0,61,0.00,,,0.00,WUHU216HW,2013-02-16 11:02:00,
2013-02-16 06:07:00,39.8,27.4,29.93,North,0,2.2,8.0,61,0.00,,,0.00,WUHU216HW,2013-02-16 11:07:00,
2013-02-16 06:12:00,40.1,27.7,29.93,North,0,1.4,8.0,61,0.00,,,0.00,WUHU216HW,2013-02-16 11:12:00,
2013-02-16 06:17:00,40.0,27.2,29.93,NW,315,5.0,5.0,60,0.00,,,0.00,WUHU216HW,2013-02-16 11:17:00,
2013-02-16 06:22:00,39.4,27.4,29.94,NW,315,3.6,6.2,62,0.00,,,0.00,WUHU216HW,2013-02-16 11:22:00,
2013-02-16 06:28:00,39.1,27.1,29.94,WNW,293,3.6,6.2,62,0.00,,,0.00,WUHU216HW,2013-02-16 11:28:00,
2013-02-16 06:33:00,39.6,27.2,29.94,NW,315,3.6,5.4,61,0.00,,,0.00,WUHU216HW,2013-02-16 11:33:00,
2013-02-16 06:38:00,39.8,27.4,29.94,NE,45,3.2,5.0,61,0.00,,,0.00,WUHU216HW,2013-02-16 11:38:00,
2013-02-16 06:43:00,39.2,27.2,29.94,North,0,1.8,4.0,62,0.00,,,0.00,WUHU216HW,2013-02-16 11:43:00,
2013-02-16 06:48:00,39.1,27.5,29.95,North,0,3.6,5.0,63,0.00,,,0.00,WUHU216HW,2013-02-16 11:48:00,
2013-02-16 06:53:00,39.4,27.4,29.95,North,0,2.6,5.0,62,0.00,,,0.00,WUHU216HW,2013-02-16 11:53:00,
2013-02-16 06:58:00,40.0,27.5,29.95,WNW,293,5.8,9.0,61,0.00,,,0.00,WUHU216HW,2013-02-16 11:58:00,
2013-02-16 07:03:00,40.0,27.9,29.95,North,0,8.6,9.4,62,0.00,,,0.00,WUHU216HW,2013-02-16 12:03:00,
2013-02-16 07:08:00,39.4,27.8,29.95,North,0,8.0,9.4,63,0.00,,,0.00,WUHU216HW,2013-02-16 12:08:00,
2013-02-16 07:13:00,39.4,27.8,29.95,North,0,5.4,10.2,63,0.00,,,0.00,WUHU216HW,2013-02-16 12:13:00,
2013-02-16 07:18:00,39.6,28.4,29.95,WNW,293,5.0,10.2,64,0.00,,,0.00,WUHU216HW,2013-02-16 12:18:00,
2013-02-16 07:23:00,39.6,28.4,29.95,North,0,4.4,7.6,64,0.00,,,0.00,WUHU216HW,2013-02-16 12:23:00,
2013-02-16 07:28:00,39.1,29.0,29.95,NNE,23,3.6,8.0,67,0.00,,,0.00,WUHU216HW,2013-02-16 12:28:00,
2013-02-16 07:33:00,38.7,29.0,29.95,West,270,10.2,10.2,68,0.00,,,0.00,WUHU216HW,2013-02-16 12:33:00,
2013-02-16 07:38:00,38.5,28.8,29.96,North,0,5.4,10.2,68,0.00,,,0.00,WUHU216HW,2013-02-16 12:38:00,
2013-02-16 07:43:00,38.7,29.3,29.95,North,0,4.4,9.4,69,0.00,,,0.00,WUHU216HW,2013-02-16 12:43:00,
2013-02-16 07:48:00,38.5,29.3,29.96,North,0,4.4,9.4,69,0.00,,,0.00,WUHU216HW,2013-02-16 12:48:00,
2013-02-16 07:53:00,38.0,29.4,29.96,NW,315,5.8,8.0,71,0.00,,,0.00,WUHU216HW,2013-02-16 12:53:00,
2013-02-16 07:58:00,37.8,29.3,29.97,WSW,248,6.8,10.8,71,0.00,,,0.00,WUHU216HW,2013-02-16 12:58:00,
2013-02-16 08:03:00,37.3,29.1,29.96,NNW,338,5.8,10.8,72,0.00,,,0.00,WUHU216HW,2013-02-16 13:03:00,
2013-02-16 08:08:00,37.1,29.5,29.96,NW,315,5.4,5.8,74,0.00,,,0.00,WUHU216HW,2013-02-16 13:08:00,
2013-02-16 08:13:00,37.3,29.7,29.95,North,0,2.6,5.4,74,0.00,,,0.00,WUHU216HW,2013-02-16 13:13:00,
2013-02-16 08:18:00,37.1,29.5,29.95,North,0,1.8,5.4,74,0.00,,,0.00,WUHU216HW,2013-02-16 13:18:00,
2013-02-16 08:23:00,36.7,29.9,29.96,NNW,338,4.4,5.0,76,0.00,,,0.00,WUHU216HW,2013-02-16 13:23:00,
2013-02-16 08:28:00,36.5,30.0,29.96,West,270,9.0,9.0,77,0.00,,,0.00,WUHU216HW,2013-02-16 13:28:00,
2013-02-16 08:33:00,36.2,29.4,29.97,NNW,338,4.0,9.0,76,0.00,,,0.00,WUHU216HW,2013-02-16 13:33:00,
2013-02-16 08:38:00,36.0,29.2,29.97,NNW,338,3.6,8.0,76,0.00,,,0.00,WUHU216HW,2013-02-16 13:38:00,
2013-02-16 09:02:00,35.1,28.9,29.96,North,0,4.4,4.4,78,0.00,,,0.00,WUHU216HW,2013-02-16 14:02:00,
2013-02-16 09:07:00,35.1,29.2,29.97,West,270,3.6,5.8,79,0.02,,,0.02,WUHU216HW,2013-02-16 14:07:00,
2013-02-16 09:12:00,35.1,28.9,29.97,NW,315,2.2,5.8,78,0.02,,,0.02,WUHU216HW,2013-02-16 14:12:00,
2013-02-16 09:17:00,34.9,29.0,29.97,North,0,2.2,5.0,79,0.02,,,0.02,WUHU216HW,2013-02-16 14:17:00,
2013-02-16 09:22:00,34.9,28.7,29.97,North,0,0.8,4.0,78,0.02,,,0.02,WUHU216HW,2013-02-16 14:22:00,
2013-02-16 09:27:00,34.9,28.7,29.96,North,0,1.8,2.6,78,0.03,,,0.03,WUHU216HW,2013-02-16 14:27:00,
2013-02-16 09:32:00,34.7,28.5,29.95,North,0,1.8,3.2,78,0.03,,,0.03,WUHU216HW,2013-02-16 14:32:00,
2013-02-16 09:37:00,34.6,28.4,29.95,NNW,338,4.0,4.0,78,0.03,,,0.04,WUHU216HW,2013-02-16 14:37:00,
2013-02-16 09:42:00,34.6,28.6,29.95,NNW,338,2.2,4.0,79,0.03,,,0.04,WUHU216HW,2013-02-16 14:42:00,
2013-02-16 09:47:00,34.2,28.3,29.95,North,0,1.4,2.6,79,0.03,,,0.04,WUHU216HW,2013-02-16 14:47:00,
2013-02-16 09:52:00,34.2,28.3,29.94,NNW,338,4.0,4.0,79,0.03,,,0.04,WUHU216HW,2013-02-16 14:52:00,
2013-02-16 09:57:00,34.2,28.3,29.94,NNW,338,2.2,4.0,79,0.03,,,0.04,WUHU216HW,2013-02-16 14:57:00,
2013-02-16 10:02:00,34.0,28.1,29.95,NNW,338,0.4,2.2,79,0.04,,,0.05,WUHU216HW,2013-02-16 15:02:00,
2013-02-16 10:07:00,34.0,28.1,29.95,NW,315,0.4,1.8,79,0.03,,,0.05,WUHU216HW,2013-02-16 15:07:00,
2013-02-16 10:12:00,34.0,28.1,29.95,NNE,23,1.8,1.8,79,0.03,,,0.05,WUHU216HW,2013-02-16 15:12:00,
2013-02-16 10:17:00,34.4,28.4,29.95,NNE,23,0.4,2.2,79,0.03,,,0.05,WUHU216HW,2013-02-16 15:17:00,
2013-02-16 10:22:00,34.6,29.0,29.94,NNW,338,0.0,2.2,80,0.03,,,0.05,WUHU216HW,2013-02-16 15:22:00,
2013-02-16 10:27:00,34.6,28.6,29.94,NNW,338,0.4,1.4,79,0.02,,,0.05,WUHU216HW,2013-02-16 15:27:00,
2013-02-16 10:32:00,34.9,29.0,29.94,NNE,23,2.6,2.6,79,0.02,,,0.05,WUHU216HW,2013-02-16 15:32:00,
2013-02-16 10:37:00,35.1,29.2,29.94,NNE,23,8.0,8.0,79,0.01,,,0.05,WUHU216HW,2013-02-16 15:37:00,
2013-02-16 10:42:00,35.3,29.7,29.94,North,0,0.8,8.0,80,0.01,,,0.05,WUHU216HW,2013-02-16 15:42:00,
2013-02-16 10:47:00,35.6,30.1,29.95,NNW,338,3.2,3.6,80,0.01,,,0.05,WUHU216HW,2013-02-16 15:47:00,
2013-02-16 10:52:00,35.3,29.7,29.95,NW,315,2.2,3.6,80,0.01,,,0.05,WUHU216HW,2013-02-16 15:52:00,
2013-02-16 10:58:00,34.9,29.0,29.95,North,0,3.6,4.4,79,0.02,,,0.06,WUHU216HW,2013-02-16 15:58:00,
2013-02-16 11:03:00,34.9,29.0,29.95,NW,315,3.6,4.4,79,0.01,,,0.06,WUHU216HW,2013-02-16 16:03:00,
2013-02-16 11:08:00,34.9,29.3,29.94,NNW,338,2.2,3.6,80,0.01,,,0.06,WUHU216HW,2013-02-16 16:08:00,
2013-02-16 11:13:00,34.9,29.3,29.94,North,0,2.2,5.0,80,0.01,,,0.06,WUHU216HW,2013-02-16 16:13:00,
2013-02-16 11:18:00,35.1,29.5,29.94,North,0,2.2,5.0,80,0.01,,,0.06,WUHU216HW,2013-02-16 16:18:00,
2013-02-16 11:23:00,35.3,29.7,29.95,NNW,338,2.2,4.4,80,0.01,,,0.06,WUHU216HW,2013-02-16 16:23:00,
2013-02-16 11:28:00,35.5,29.9,29.94,NW,315,5.8,5.8,80,0.01,,,0.06,WUHU216HW,2013-02-16 16:28:00,
2013-02-16 11:33:00,35.5,29.9,29.94,NNW,338,5.0,6.8,80,0.02,,,0.07,WUHU216HW,2013-02-16 16:33:00,
2013-02-16 11:38:00,35.6,30.1,29.94,North,0,2.2,6.8,80,0.02,,,0.07,WUHU216HW,2013-02-16 16:38:00,
2013-02-16 11:43:00,35.5,29.9,29.94,North,0,1.4,8.0,80,0.02,,,0.07,WUHU216HW,2013-02-16 16:43:00,
2013-02-16 11:48:00,35.5,29.9,29.93,North,0,0.8,8.0,80,0.03,,,0.08,WUHU216HW,2013-02-16 16:48:00,
2013-02-16 11:53:00,35.5,29.9,29.93,North,0,1.8,3.2,80,0.03,,,0.08,WUHU216HW,2013-02-16 16:53:00,
2013-02-16 11:58:00,35.5,29.9,29.93,North,0,2.2,2.6,80,0.02,,,0.08,WUHU216HW,2013-02-16 16:58:00,
2013-02-16 12:03:00,35.3,29.3,29.93,NNW,338,2.2,3.6,79,0.02,,,0.08,WUHU216HW,2013-02-16 17:03:00,
2013-02-16 12:08:00,34.9,29.0,29.93,NNW,338,1.8,3.6,79,0.03,,,0.09,WUHU216HW,2013-02-16 17:08:00,
2013-02-16 12:13:00,34.9,29.0,29.93,WNW,293,1.4,2.2,79,0.03,,,0.09,WUHU216HW,2013-02-16 17:13:00,
2013-02-16 12:18:00,34.9,29.0,29.92,NNW,338,2.2,3.6,79,0.03,,,0.09,WUHU216HW,2013-02-16 17:18:00,
2013-02-16 12:23:00,34.7,28.8,29.92,NNW,338,0.8,2.2,79,0.04,,,0.10,WUHU216HW,2013-02-16 17:23:00,
2013-02-16 12:28:00,34.7,28.5,29.92,NNW,338,0.8,1.8,78,0.04,,,0.10,WUHU216HW,2013-02-16 17:28:00,
2013-02-16 12:33:00,34.7,28.5,29.91,NNW,338,0.8,1.8,78,0.03,,,0.10,WUHU216HW,2013-02-16 17:33:00,
2013-02-16 12:38:00,34.6,28.4,29.91,NNW,338,0.8,1.4,78,0.03,,,0.10,WUHU216HW,2013-02-16 17:38:00,
2013-02-16 12:43:00,34.9,29.3,29.90,NW,315,2.2,2.2,80,0.02,,,0.10,WUHU216HW,2013-02-16 17:43:00,
2013-02-16 12:48:00,34.6,28.6,29.90,NW,315,2.2,2.2,79,0.04,,,0.12,WUHU216HW,2013-02-16 17:48:00,
2013-02-16 12:53:00,34.4,28.8,29.90,NW,315,2.2,3.6,80,0.04,,,0.12,WUHU216HW,2013-02-16 17:53:00,
2013-02-16 12:58:00,34.6,29.3,29.89,NNW,338,2.2,3.6,81,0.04,,,0.12,WUHU216HW,2013-02-16 17:58:00,
2013-02-16 13:03:00,34.9,29.6,29.89,NW,315,1.8,2.2,81,0.04,,,0.12,WUHU216HW,2013-02-16 18:03:00,
2013-02-16 13:08:00,34.9,29.9,29.89,NNW,338,0.8,3.2,82,0.03,,,0.12,WUHU216HW,2013-02-16 18:08:00,
2013-02-16 13:13:00,34.9,29.9,29.89,West,270,1.4,3.2,82,0.03,,,0.12,WUHU216HW,2013-02-16 18:13:00,
2013-02-16 13:18:00,34.9,29.9,29.89,NNW,338,1.8,2.6,82,0.03,,,0.12,WUHU216HW,2013-02-16 18:18:00,
2013-02-16 13:23:00,35.3,30.2,29.88,NNW,338,1.8,2.6,82,0.02,,,0.12,WUHU216HW,2013-02-16 18:23:00,
2013-02-16 13:28:00,34.7,29.4,29.88,NW,315,3.6,3.6,81,0.04,,,0.14,WUHU216HW,2013-02-16 18:28:00,
2013-02-16 13:33:00,34.6,29.0,29.88,NNW,338,1.4,3.6,80,0.04,,,0.14,WUHU216HW,2013-02-16 18:33:00,
2013-02-16 13:38:00,35.5,30.2,29.88,NNW,338,1.8,3.2,81,0.04,,,0.14,WUHU216HW,2013-02-16 18:38:00,
2013-02-16 13:43:00,35.5,30.2,29.87,North,0,2.2,2.2,81,0.02,,,0.14,WUHU216HW,2013-02-16 18:43:00,
2013-02-16 13:48:00,35.5,29.5,29.87,North,0,0.8,3.6,79,0.02,,,0.14,WUHU216HW,2013-02-16 18:48:00,
2013-02-16 13:53:00,35.1,28.9,29.87,North,0,0.8,3.6,78,0.02,,,0.14,WUHU216HW,2013-02-16 18:53:00,
2013-02-16 13:58:00,34.7,28.5,29.87,NNW,338,1.8,5.0,78,0.02,,,0.14,WUHU216HW,2013-02-16 18:58:00,
2013-02-16 14:03:00,34.6,28.4,29.88,NW,315,1.4,5.0,78,0.02,,,0.14,WUHU216HW,2013-02-16 19:03:00,
2013-02-16 14:08:00,34.2,28.0,29.88,North,0,2.2,3.2,78,0.02,,,0.14,WUHU216HW,2013-02-16 19:08:00,
2013-02-16 14:13:00,34.2,28.3,29.88,North,0,1.4,3.2,79,0.02,,,0.14,WUHU216HW,2013-02-16 19:13:00,
2013-02-16 14:14:00,34.2,28.6,29.88,NNW,338,4.0,5.0,80,0.02,,,0.14,WUHU216HW,2013-02-16 19:14:00,
2013-02-16 14:18:00,34.2,28.6,29.88,NNW,338,4.0,5.0,80,0.02,,,0.14,WUHU216HW,2013-02-16 19:18:00,
2013-02-16 14:23:00,34.2,28.6,29.88,NNW,338,4.0,5.0,80,0.02,,,0.14,WUHU216HW,2013-02-16 19:23:00,
2013-02-16 14:46:00,34.2,28.9,29.87,NW,315,2.2,2.2,81,0.00,,,0.14,WUHU216HW,2013-02-16 19:46:00,
2013-02-16 14:51:00,33.7,28.1,29.87,NNW,338,3.6,3.6,80,0.01,,,0.15,WUHU216HW,2013-02-16 19:51:00,
2013-02-16 14:56:00,33.1,27.6,29.87,NW,315,1.4,3.6,80,0.01,,,0.15,WUHU216HW,2013-02-16 19:56:00,
2013-02-16 15:01:00,32.8,27.3,29.87,NNW,338,2.6,3.6,80,0.01,,,0.15,WUHU216HW,2013-02-16 20:01:00,
2013-02-16 15:06:00,32.8,27.3,29.86,NNW,338,3.6,3.6,80,0.03,,,0.17,WUHU216HW,2013-02-16 20:06:00,
2013-02-16 15:11:00,32.8,27.3,29.86,NNW,338,2.2,3.6,80,0.03,,,0.17,WUHU216HW,2013-02-16 20:11:00,
2013-02-16 15:16:00,32.6,27.1,29.86,NNW,338,4.0,4.0,80,0.03,,,0.17,WUHU216HW,2013-02-16 20:16:00,
2013-02-16 15:21:00,32.8,27.5,29.86,NNW,338,1.4,4.0,81,0.02,,,0.17,WUHU216HW,2013-02-16 20:21:00,
2013-02-16 15:27:00,32.9,28.0,29.86,NNW,338,1.4,3.6,82,0.02,,,0.17,WUHU216HW,2013-02-16 20:27:00,
2013-02-16 15:32:00,32.8,27.5,29.86,NW,315,1.4,2.2,81,0.02,,,0.17,WUHU216HW,2013-02-16 20:32:00,
2013-02-16 15:37:00,32.8,27.5,29.86,WNW,293,2.2,2.6,81,0.02,,,0.17,WUHU216HW,2013-02-16 20:37:00,
2013-02-16 15:42:00,32.8,27.5,29.86,NW,315,0.8,2.6,81,0.02,,,0.17,WUHU216HW,2013-02-16 20:42:00,
2013-02-16 15:47:00,32.8,27.5,29.86,NNW,338,0.0,3.2,81,0.02,,,0.17,WUHU216HW,2013-02-16 20:47:00,
2013-02-16 15:49:00,32.8,27.5,29.86,NW,315,2.6,2.6,81,0.02,,,0.17,WUHU216HW,2013-02-16 20:49:00,
2013-02-16 15:52:00,32.8,27.5,29.86,NW,315,2.6,3.2,81,0.02,,,0.17,WUHU216HW,2013-02-16 20:52:00,
2013-02-16 15:57:00,32.8,27.5,29.86,NW,315,2.6,2.6,81,0.02,,,0.17,WUHU216HW,2013-02-16 20:57:00,
2013-02-16 16:02:00,33.1,27.9,29.85,NNW,338,1.4,1.4,81,0.02,,,0.17,WUHU216HW,2013-02-16 21:02:00,
2013-02-16 16:07:00,33.3,28.1,29.85,NNW,338,2.2,5.4,81,0.00,,,0.17,WUHU216HW,2013-02-16 21:07:00,
2013-02-16 16:12:00,32.9,28.0,29.85,NNW,338,0.8,5.4,82,0.00,,,0.17,WUHU216HW,2013-02-16 21:12:00,
2013-02-16 16:17:00,32.8,27.5,29.86,NNW,338,0.8,2.2,81,0.00,,,0.17,WUHU216HW,2013-02-16 21:17:00,
2013-02-16 16:22:00,32.8,27.5,29.85,North,0,0.4,2.2,81,0.02,,,0.19,WUHU216HW,2013-02-16 21:22:00,
2013-02-16 16:27:00,32.8,27.5,29.85,North,0,1.4,2.2,81,0.02,,,0.19,WUHU216HW,2013-02-16 21:27:00,
2013-02-16 16:32:00,32.9,27.7,29.85,NNW,338,0.8,2.6,81,0.02,,,0.19,WUHU216HW,2013-02-16 21:32:00,
2013-02-16 16:37:00,33.1,27.9,29.85,NNW,338,2.2,2.6,81,0.02,,,0.19,WUHU216HW,2013-02-16 21:37:00,
2013-02-16 16:42:00,32.9,27.7,29.85,North,0,0.4,4.0,81,0.02,,,0.19,WUHU216HW,2013-02-16 21:42:00,
2013-02-16 16:47:00,33.1,27.9,29.85,NNW,338,0.8,4.0,81,0.02,,,0.19,WUHU216HW,2013-02-16 21:47:00,
2013-02-16 16:52:00,33.1,27.9,29.85,NNE,23,4.4,4.4,81,0.02,,,0.19,WUHU216HW,2013-02-16 21:52:00,
2013-02-16 16:57:00,33.1,27.9,29.85,North,0,1.4,4.4,81,0.02,,,0.19,WUHU216HW,2013-02-16 21:57:00,
2013-02-16 17:02:00,33.3,28.1,29.85,NNW,338,0.0,3.6,81,0.02,,,0.19,WUHU216HW,2013-02-16 22:02:00,
2013-02-16 17:07:00,33.1,27.9,29.85,NNW,338,2.6,2.6,81,0.02,,,0.19,WUHU216HW,2013-02-16 22:07:00,
2013-02-16 17:13:00,33.3,28.4,29.85,NNW,338,2.6,3.2,82,0.02,,,0.19,WUHU216HW,2013-02-16 22:13:00,
2013-02-16 17:18:00,33.7,28.4,29.85,WNW,293,0.8,3.2,81,0.02,,,0.19,WUHU216HW,2013-02-16 22:18:00,
2013-02-16 17:23:00,33.1,28.2,29.85,NW,315,2.2,2.2,82,0.00,,,0.19,WUHU216HW,2013-02-16 22:23:00,
2013-02-16 17:28:00,32.8,27.5,29.86,NW,315,2.2,2.2,81,0.00,,,0.19,WUHU216HW,2013-02-16 22:28:00,
2013-02-16 17:33:00,32.4,27.0,29.86,NW,315,2.2,2.6,80,0.00,,,0.19,WUHU216HW,2013-02-16 22:33:00,
2013-02-16 17:38:00,32.2,26.8,29.86,WNW,293,1.8,3.2,80,0.00,,,0.19,WUHU216HW,2013-02-16 22:38:00,
2013-02-16 17:43:00,32.0,26.6,29.86,NNW,338,2.2,3.2,80,0.00,,,0.19,WUHU216HW,2013-02-16 22:43:00,
2013-02-16 17:48:00,32.0,26.9,29.86,NNW,338,2.2,3.6,81,0.00,,,0.19,WUHU216HW,2013-02-16 22:48:00,
2013-02-16 17:53:00,31.9,26.1,29.86,NNW,338,3.6,3.6,79,0.00,,,0.19,WUHU216HW,2013-02-16 22:53:00,
2013-02-16 17:58:00,31.9,26.5,29.86,NNW,338,1.4,3.6,80,0.00,,,0.19,WUHU216HW,2013-02-16 22:58:00,
2013-02-16 18:03:00,31.5,25.7,29.86,NW,315,1.8,2.2,79,0.00,,,0.19,WUHU216HW,2013-02-16 23:03:00,
2013-02-16 18:08:00,31.3,25.6,29.86,NNW,338,1.4,2.2,79,0.00,,,0.19,WUHU216HW,2013-02-16 23:08:00,
2013-02-16 18:13:00,31.3,25.6,29.86,NNW,338,0.4,1.8,79,0.00,,,0.19,WUHU216HW,2013-02-16 23:13:00,
2013-02-16 18:18:00,31.3,25.6,29.86,NNW,338,1.4,1.4,79,0.00,,,0.19,WUHU216HW,2013-02-16 23:18:00,
2013-02-16 18:23:00,31.3,25.9,29.87,NNW,338,0.8,1.8,80,0.00,,,0.19,WUHU216HW,2013-02-16 23:23:00,
2013-02-16 18:28:00,32.0,26.9,29.87,NNW,338,0.4,1.8,81,0.00,,,0.19,WUHU216HW,2013-02-16 23:28:00,
2013-02-16 18:33:00,32.0,27.2,29.87,NNW,338,0.8,0.8,82,0.00,,,0.19,WUHU216HW,2013-02-16 23:33:00,
2013-02-16 18:38:00,31.9,26.7,29.87,NNW,338,1.4,1.4,81,0.00,,,0.19,WUHU216HW,2013-02-16 23:38:00,
2013-02-16 18:43:00,31.9,26.7,29.87,NNW,338,0.8,3.2,81,0.00,,,0.19,WUHU216HW,2013-02-16 23:43:00,
2013-02-16 18:48:00,32.6,27.7,29.87,North,0,0.8,2.2,82,0.00,,,0.19,WUHU216HW,2013-02-16 23:48:00,
2013-02-16 18:53:00,33.5,28.5,29.87,NW,315,2.2,2.2,82,0.00,,,0.19,WUHU216HW,2013-02-16 23:53:00,
2013-02-16 18:59:00,33.5,28.5,29.87,NW,315,1.8,2.2,82,0.00,,,0.19,WUHU216HW,2013-02-16 23:59:00,
2013-02-16 19:04:00,33.3,28.1,29.87,NW,315,0.0,1.8,81,0.00,,,0.19,WUHU216HW,2013-02-17 00:04:00,
2013-02-16 19:09:00,33.5,27.9,29.87,NNW,338,0.8,2.2,80,0.00,,,0.19,WUHU216HW,2013-02-17 00:09:00,
2013-02-16 19:14:00,33.5,27.9,29.87,NW,315,0.8,2.2,80,0.00,,,0.19,WUHU216HW,2013-02-17 00:14:00,
2013-02-16 19:19:00,33.5,27.9,29.87,NW,315,0.8,1.8,80,0.00,,,0.19,WUHU216HW,2013-02-17 00:19:00,
2013-02-16 19:20:00,33.5,27.6,29.87,NW,315,0.8,0.8,79,0.00,,,0.19,WUHU216HW,2013-02-17 00:20:00,
2013-02-16 19:24:00,33.5,27.6,29.87,NW,315,0.8,0.8,79,0.00,,,0.19,WUHU216HW,2013-02-17 00:24:00,
2013-02-16 19:29:00,33.5,27.6,29.87,NW,315,0.8,0.8,79,0.00,,,0.19,WUHU216HW,2013-02-17 00:29:00,
2013-02-16 19:52:00,32.2,26.5,29.88,NW,315,0.8,0.8,79,0.00,,,0.19,WUHU216HW,2013-02-17 00:52:00,
2013-02-16 19:57:00,32.0,26.3,29.88,NW,315,1.4,2.2,79,0.00,,,0.19,WUHU216HW,2013-02-17 00:57:00,
2013-02-16 20:02:00,32.0,26.6,29.88,NW,315,0.8,2.2,80,0.00,,,0.19,WUHU216HW,2013-02-17 01:02:00,
2013-02-16 20:07:00,32.6,27.5,29.88,NW,315,0.8,2.2,81,0.00,,,0.19,WUHU216HW,2013-02-17 01:07:00,
2013-02-16 20:12:00,32.4,27.3,29.88,NW,315,1.4,2.2,81,0.00,,,0.19,WUHU216HW,2013-02-17 01:12:00,
2013-02-16 20:17:00,32.0,26.3,29.88,NW,315,2.2,2.6,79,0.00,,,0.19,WUHU216HW,2013-02-17 01:17:00,
2013-02-16 20:22:00,31.9,26.1,29.88,NW,315,4.0,4.0,79,0.00,,,0.19,WUHU216HW,2013-02-17 01:22:00,
2013-02-16 20:27:00,31.7,25.9,29.88,NW,315,3.6,6.8,79,0.00,,,0.19,WUHU216HW,2013-02-17 01:27:00,
2013-02-16 20:33:00,31.7,25.9,29.89,NW,315,1.8,6.8,79,0.00,,,0.19,WUHU216HW,2013-02-17 01:33:00,
2013-02-16 20:38:00,31.7,25.9,29.89,NW,315,2.2,4.0,79,0.00,,,0.19,WUHU216HW,2013-02-17 01:38:00,
2013-02-16 20:43:00,31.7,26.3,29.89,NW,315,5.4,5.4,80,0.00,,,0.19,WUHU216HW,2013-02-17 01:43:00,
2013-02-16 20:48:00,31.7,26.3,29.89,NW,315,1.4,5.4,80,0.00,,,0.19,WUHU216HW,2013-02-17 01:48:00,
2013-02-16 20:50:00,31.7,26.3,29.90,NW,315,1.8,3.2,80,0.00,,,0.19,WUHU216HW,2013-02-17 01:50:00,
2013-02-16 20:53:00,31.7,26.3,29.90,NW,315,1.8,4.0,80,0.00,,,0.19,WUHU216HW,2013-02-17 01:53:00,
2013-02-16 20:58:00,31.7,26.3,29.90,NW,315,1.8,3.2,80,0.00,,,0.19,WUHU216HW,2013-02-17 01:58:00,
2013-02-16 21:03:00,31.7,26.6,29.90,NW,315,3.6,3.6,81,0.00,,,0.19,WUHU216HW,2013-02-17 02:03:00,
2013-02-16 21:08:00,31.9,26.7,29.90,NW,315,2.6,3.6,81,0.00,,,0.19,WUHU216HW,2013-02-17 02:08:00,
2013-02-16 21:13:00,31.9,26.7,29.90,NW,315,0.8,4.0,81,0.00,,,0.19,WUHU216HW,2013-02-17 02:13:00,
2013-02-16 21:18:00,32.0,26.9,29.91,NW,315,1.4,4.0,81,0.00,,,0.19,WUHU216HW,2013-02-17 02:18:00,
2013-02-16 21:23:00,32.2,27.4,29.91,NW,315,3.6,3.6,82,0.00,,,0.19,WUHU216HW,2013-02-17 02:23:00,
2013-02-16 21:28:00,31.5,26.1,29.91,NW,315,2.2,3.6,80,0.00,,,0.19,WUHU216HW,2013-02-17 02:28:00,
2013-02-16 21:33:00,31.3,25.9,29.91,NW,315,0.8,3.6,80,0.00,,,0.19,WUHU216HW,2013-02-17 02:33:00,
2013-02-16 21:38:00,31.1,25.7,29.91,NW,315,3.2,3.6,80,0.00,,,0.19,WUHU216HW,2013-02-17 02:38:00,
2013-02-16 21:43:00,31.0,25.6,29.91,NW,315,2.6,3.2,80,0.00,,,0.19,WUHU216HW,2013-02-17 02:43:00,
2013-02-16 21:48:00,31.0,25.8,29.91,NW,315,3.6,3.6,81,0.00,,,0.19,WUHU216HW,2013-02-17 02:48:00,
2013-02-16 21:53:00,31.3,26.2,29.91,NW,315,4.0,4.4,81,0.00,,,0.19,WUHU216HW,2013-02-17 02:53:00,
2013-02-16 21:58:00,31.3,25.6,29.91,NW,315,3.6,6.2,79,0.00,,,0.19,WUHU216HW,2013-02-17 02:58:00,
2013-02-16 22:03:00,31.3,24.9,29.91,NW,315,8.0,8.0,77,0.00,,,0.19,WUHU216HW,2013-02-17 03:03:00,
2013-02-16 22:08:00,31.5,24.5,29.92,NW,315,10.2,10.2,75,0.00,,,0.19,WUHU216HW,2013-02-17 03:08:00,
2013-02-16 22:13:00,31.3,23.7,29.92,NW,315,6.8,10.2,73,0.00,,,0.19,WUHU216HW,2013-02-17 03:13:00,
2013-02-16 22:18:00,31.3,23.3,29.92,NW,315,11.2,11.2,72,0.00,,,0.19,WUHU216HW,2013-02-17 03:18:00,
2013-02-16 22:23:00,31.3,23.3,29.92,NW,315,6.2,11.2,72,0.00,,,0.19,WUHU216HW,2013-02-17 03:23:00,
2013-02-16 22:28:00,31.3,23.7,29.92,NW,315,8.0,9.0,73,0.00,,,0.19,WUHU216HW,2013-02-17 03:28:00,
2013-02-16 22:34:00,31.0,21.6,29.92,NW,315,5.0,9.4,68,0.00,,,0.19,WUHU216HW,2013-02-17 03:34:00,
2013-02-16 22:39:00,30.6,22.0,29.92,NW,315,2.6,9.4,70,0.00,,,0.19,WUHU216HW,2013-02-17 03:39:00,
2013-02-16 22:44:00,30.4,21.8,29.92,NW,315,6.8,6.8,70,0.00,,,0.19,WUHU216HW,2013-02-17 03:44:00,
2013-02-16 22:49:00,30.6,22.0,29.92,NW,315,3.6,9.8,70,0.00,,,0.19,WUHU216HW,2013-02-17 03:49:00,
2013-02-16 22:54:00,30.6,21.2,29.92,NW,315,4.4,9.8,68,0.00,,,0.19,WUHU216HW,2013-02-17 03:54:00,
2013-02-16 22:59:00,30.4,21.4,29.92,NW,315,5.4,9.4,69,0.00,,,0.19,WUHU216HW,2013-02-17 03:59:00,
2013-02-16 23:04:00,30.4,20.3,29.92,NW,315,5.0,9.0,66,0.00,,,0.19,WUHU216HW,2013-02-17 04:04:00,
2013-02-16 23:09:00,30.2,20.5,29.92,NW,315,5.0,9.4,67,0.00,,,0.19,WUHU216HW,2013-02-17 04:09:00,
2013-02-16 23:14:00,30.1,21.1,29.93,NW,315,6.8,9.4,69,0.00,,,0.19,WUHU216HW,2013-02-17 04:14:00,
2013-02-16 23:19:00,29.9,20.5,29.93,NW,315,3.6,7.6,68,0.00,,,0.19,WUHU216HW,2013-02-17 04:19:00,
2013-02-16 23:24:00,29.7,20.8,29.93,NW,315,3.6,8.6,69,0.00,,,0.19,WUHU216HW,2013-02-17 04:24:00,
2013-02-16 23:29:00,29.9,20.9,29.93,NW,315,6.8,8.6,69,0.00,,,0.19,WUHU216HW,2013-02-17 04:29:00,
2013-02-16 23:34:00,29.5,20.6,29.93,NW,315,4.4,8.0,69,0.00,,,0.19,WUHU216HW,2013-02-17 04:34:00,
2013-02-16 23:39:00,29.5,20.6,29.94,NW,315,10.8,10.8,69,0.00,,,0.19,WUHU216HW,2013-02-17 04:39:00,
2013-02-16 23:44:00,29.9,20.5,29.94,NW,315,3.2,10.8,68,0.00,,,0.19,WUHU216HW,2013-02-17 04:44:00,
2013-02-16 23:49:00,29.7,20.4,29.94,NW,315,3.6,8.0,68,0.00,,,0.19,WUHU216HW,2013-02-17 04:49:00,
2013-02-16 23:54:00,29.5,20.3,29.94,NW,315,4.0,8.0,68,0.00,,,0.19,WUHU216HW,2013-02-17 04:54:00,
2013-02-16 23:59:00,29.5,19.9,29.94,NW,315,8.0,8.0,67,0.00,,,0.19,WUHU216HW,2013-02-17 04:59:00,